Location: Colorado Springs
(38.8340°N, 104.8210°W)
Time: 23:21:15
(UTC-06:00)

ISS - Pass Details

Date: 15 October 2017
Orbit: 401 x 408 km, 51.6° (Epoch: 20 October)

Event Time Altitude Azimuth Distance (km) Brightness Sun altitude
Rises 19:42:11 0° 300° (WNW) 2,323 1.1 -16.7°
Reaches altitude 10° 19:44:23 10° 290° (WNW) 1,461 0.1 -17.1°
Maximum altitude 19:47:20 31° 226° (SW) 730 -2.2 -17.7°
Enters shadow 19:49:22 16° 171° (S) 1,133 -1.7 -18.1°
